Location: Seattle
(47.6064°N, 122.3308°W)
Time: 14:47:35
(UTC-08:00)

S-56A Canister/Altair - Pass Details

Date: 04 October 2022
Orbit: 638 x 2494 km, 38.9° (Epoch: 03 December)

Event Time Altitude Azimuth Distance (km) Brightness Sun altitude
Exits shadow 03:53:53 46° 160° (SSE) 1,781 9.1 -32.8°
Drops below altitude 10° 03:59:50 10° 108° (ESE) 2,941 10.9 -31.9°
Sets 04:02:11 0° 102° (ESE) 3,697 11.6 -31.6°
